Regional Weather Roundup
Issued by NWS

Home | Current Version | Previous Version | Graphics & Text | Print | Product List | Glossary On
Versions: 1 2 3 4 5 6 7 8 9 10 11 12 13 14 15 16 17 18 19 20 21 22 23 24 25 26 27 28 29 30 31 32 33 34 35 36 37 38 39 40 41 42 43 44 45 46 47 48 49 50
000
ASUS43 KTOP 251608
RWRKS

WEATHER ROUNDUP FOR KANSAS
NATIONAL WEATHER SERVICE GOODLAND KS
1100 AM CDT WED MAY 25 2016

NOTE:  "FAIR" INDICATES FEW OR NO CLOUDS BELOW 12,000 FEET WITH NO
SIGNIFICANT WEATHER AND/OR OBSTRUCTIONS TO VISIBILITY.

KSZ001>006-013>018-027>032-041>047-251700-
NORTHWEST KANSAS

CITY           SKY/WX    TMP DP  RH WIND       PRES   REMARKS
GOODLAND       CLOUDY    61  55  81 E5        29.93F
HAYS             N/A     55  55 100 NE14      29.85
HILL CITY      CLOUDY    64  58  80 E10       29.88S
RUSSELL        CLOUDY    67  64  90 NE9       29.85S
$$

KSZ061>065-074>080-084>089-251700-
SOUTHWEST KANSAS

CITY           SKY/WX    TMP DP  RH WIND       PRES   REMARKS
DODGE CITY     SUNNY     72  61  68 NW10      29.85R
ELKHART          N/A     76  37  24 NW7         N/A
GARDEN CITY    MOSUNNY   71  61  70 N10       29.88R
GREAT BEND     CLOUDY    72  63  73 S7        29.84S
LIBERAL        SUNNY     75  52  43 NW12      29.91F
PRATT          PTSUNNY   75  67  75 S15       29.83S
$$

KSZ066>073-081>083-090>101-251700-
SOUTHEAST KANSAS

CITY           SKY/WX    TMP DP  RH WIND       PRES   REMARKS
CHANUTE        SUNNY     75  61  61 S17       29.87S
COFFEYVILLE    SUNNY     74  64  71 S16       29.90F
HUTCHINSON     CLOUDY    73  69  87 S13       29.85R
MEDICINE LODGE   N/A     82  64  54 SW13      29.81S
NEWTON         CLOUDY    70  63  78 S12G17    29.89R
PARSONS        SUNNY     74  64  71 S14G23    29.89F
WICHITA INTL   CLOUDY    75  68  78 S18G26    29.84F
WICHITA JABRA  CLOUDY    72  67  84 S20G29    29.85S
WICHITA MCCONL CLOUDY    73  67  81 S22       29.85F
WINFIELD       CLOUDY    73  67  81 SE17G29   29.89S
$$

KSZ007>012-019>026-033>040-048>060-102>105-251700-
NORTHEAST KANSAS

CITY           SKY/WX    TMP DP  RH WIND       PRES   REMARKS
CONCORDIA      CLOUDY    64  60  87 E6        29.89R
EMPORIA        CLOUDY    71  63  75 S16G24    29.90S
LAWRENCE       MOSUNNY   76  61  59 E6        29.91R
MANHATTAN      CLOUDY    72  63  73 NE7       29.87F
MARYSVILLE     CLOUDY    70  63  78 SE8       29.88R
OLATHE IND     CLOUDY    74  60  61 VRB5      29.92F
OLATHE EXE     PTSUNNY   73  59  61 VRB6      29.91F
SALINA         CLOUDY    73  68  84 S9        29.85S
TOPEKA BILLARD CLOUDY    74  61  63 S9        29.90R
TOPEKA FORBES  PTSUNNY   74  62  66 S16G25    29.90R
$$



USA.gov is the U.S. government's official web portal to all federal, state and local government web resources and services.